Simultaneous Nadir Overpasses (SNOs) Predictions

Prediction of SNOs between TERRA and METOP-C Satellite Orbit:

Table of predicted SNOs for the next 14.0 days since TLE Epoch: 9/24/2022
Index Date (TERRA) Time (TERRA) Lat,Lon (TERRA) SZA (TERRA ) Date (METOP-C) Time (METOP-C) Lat,Lon (METOP-C) SZA (METOP-C ) Distance(km) Time Diff (sec)
1 09/24/2022 16:56:41 81.14, -34.66 83.99 09/24/2022 16:55:52 81.15, -34.49 83.99 3.09 49
2 09/24/2022 17:46:07 -81.16, 133.25 95.96 09/24/2022 17:46:31 -81.16, 133.40 95.93 2.71 24
3 09/27/2022 12:30:49 81.13, 31.63 85.08 09/27/2022 12:30:12 81.14, 31.72 85.08 1.88 37
4 09/27/2022 13:20:14 -81.17,-160.08 94.81 09/27/2022 13:20:50 -81.17,-159.93 94.78 2.42 36
5 09/30/2022 08:04:56 81.14, 98.17 86.20 09/30/2022 08:04:31 81.14, 98.27 86.21 1.71 25
6 09/30/2022 08:54:22 -81.16, -93.87 93.74 09/30/2022 08:55:10 -81.17, -93.69 93.69 3.26 48
7 10/03/2022 03:39:02 81.14, 164.61 87.31 10/03/2022 03:38:49 81.15, 164.77 87.33 2.83 13
8 10/03/2022 04:28:28 -81.16, -27.42 92.63 10/03/2022 04:29:29 -81.16, -27.49 92.61 1.29 61
9 10/05/2022 22:23:43 -81.13, 63.34 91.62 10/05/2022 22:22:29 -81.13, 63.44 91.65 1.72 74
10 10/05/2022 23:13:08 81.15,-128.69 88.44 10/05/2022 23:13:08 81.15,-128.78 88.43 1.56 0



Historial Predications of SNOs between TERRA and METOP-C
